YZ-1 R/B, 43584

Orbit data source: Space-Track

YZ-1 R/B, 43584 is space debris originally from a launch on Sun, 29 Jul 2018 UTC launched from the Xichang Space Center, China (XSC). Debris objects in space refer to the collection of defunct objects orbiting the Earth. Examples of debris include non-operational satellites, rocket bodies, and fragments generated from explosions, collisions, or faulty payload assembly.

Loading next visibility...
Identifier
43584, 2018-062D
Orbit
Active
Last TLE update
1 day ago
Origin
Manufacturer
CALT
Mission
Spacecraft
Bus & Motor
YZ-1, Unknown motor
Mass
~2,075 kg wet, ~2,075 kg dry
Launch date (UTC)
2018-07-29 (7 years ago)
Launch vehicle
Unknown
Launch site
Xichang Space Center, China (XSC)
Object type
Payload
Rocket body
Debris
Shape & HBR
Double Cone, 4 m
Radar Cross Section
5.890 m², Large (>1 m²)

Expand to show TLE details & history

TLE from 1 day ago
0 YZ-1 R/B
1 43584U 18062D   25192.97589560  .00000088  00000-0  00000-0 0  9995
2 43584  54.0439 201.1801 0041629  44.0543 316.3047  1.78871115 45435
Epoch: 2025-07-11T23:25Z
TLE epoch observation values (Epoch: 2025-07-11T23:25:17.379Z)
Latitude
Longitude
-80.2561°
Altitude
22,202.642 km
Speed
3.74 km/s
True Right ascension
13h 24m 44s
True Declination
0° 00' 00"
Sunlit
Object was in daylight at epoch
Visualization orbit readout
Latitude
-46.86433°
Longitude
150.41223°
Altitude
22,416.994 km
Speed
3.714 km/s
Apparent Right ascension
05h 45m 01s
Apparent Declination
-52° 47' 09"
Sunlit
Object is in daylight
Visualization observer readout
Local Sidereal Time
23:47:07
Azimuth
135.452° SSE
Elevation
-30.447°
Doppler factor
1
Orbital elements
Apogee altitude
22,407.767 km
Perigee altitude
22,169.095 km
Semi-major axis
28,666.568 km
Eccentricity
0.00416
Inclination
54.0439°
RAAN
201.1801°
Arg. of periapsis
44.0543°
True anomaly
Unknown
Mean anomaly
316.3047°
Eccentric anomaly
Unknown
Mean motion
0.44718 °/min
Orbital period
805.05 mins
BSTAR
0
Loading maneuver chart data...
Loading SW <> Apogee altitude chart data...
Loading historical data...
Loading historical data...
Loading historical data...
Loading historical data...
Loading historical data...
Loading historical data...
Loading historical data...
Other satellites on launch #62 in the year 2018 (2018-07-29 UTC)

YZ-1 R/B Visibility forecast

Observer location: undefined°, undefined°

Span
Click to sort rows by Start time (UTC) header in descending order
Start Az.
Max El. time (UTC)
Max El. Az.
Max El.
End time (UTC)
End Az.
367 mins2025-07-14 05:14:13.324Z253.959° W2025-07-14 09:37:13.324Z55.111° ENE44.749°2025-07-14 11:21:13.324Z149.696° SSE
|